Погода в Ныде

Погода в Ныде : погода сейчас, прогноз погоды и архив. Всё, что Вы хотите узнать о погоде в Ныде!

Хотите узнать прогноз погоды в Ныде? Тогда Вам сюда: Погода в Ныде

Поиск расширенной информации на нашем сайте:

Другие новости

Новости СМИ2

Главная страница сайта

Новости сайта

03.07.2017

Напоминаем, что на нашем специализированном сайте Метеоцентр.Азия вы можете получить высокодетализированные автоматические прогнозы погоды по пунктам России, СНГ и мира в авиационном формате (включающие направление и скорость ветра, видимость, явления погоды, количество и форму облачности, нижнюю и верхнюю границу облачности).


Погода в Ныде - сегодня

Время (UTC), дата Ветер
(°,м/с) 
Видим.   Явления Облачность Т
(°С)
Тd
(°С)
f(%) Тe
(°С)
Pmin
(гПа)
dP
(гПа)
Po
(мм)
O2
(г/м3)
Тmin Tmax R s Состояние
почвы
03 21.09.17 310 (СЗ) 8-10{11}  4000 м  в посл. час морось  10/10 300 м 
[St]
+3.4 +2 91 1021.2  -0.7  765  304  +1.5    0.4    влажная 
06 21.09.17 010 (С) 7{11}  4000 м  слаб. дождь{морось}  10/10 300 м 
[Frnb]
+3.7 +2.7 93 +1  1020.5  -0.7  765  304           
09 21.09.17 010 (С) 9-14{15}  10 км  {дождь}  6/4 300 м средняя 
[Sc|Ac trans]
+2.9 -1.1 75 -1  1021.8  1.3  766  305           
12 21.09.17 020 (С) 7-11{15}  10 км  {ливн. осадки, дождь}  8/5 300 м кучево-дожд., средняя 
[Cb cap|Ac trans]
+1.8 -1.2 80 -2  1022.7  0.9  766  307           
15 21.09.17 010 (С) 8-12{16}  4000 м  слаб. ливневой снег  8/8 300 м кучево-дожд. 
[Cb cap]
+1.3 +0.2 92 -3  1023.3  0.6  767  307    +4.1     
18 21.09.17 360 (С) 9-12{16}  4000 м  слаб. ливневой снег  10/10 300 м кучево-дожд. 
[Cb cap]
+0.8 +0.2 96 -4  1013.6  0.3  760  305           
21 21.09.17 340 (С) 7{13}  н/о    н/о 
+0.5 -0.4 94 -3               
00 22.09.17 340 (С) 10-13{14}  10 км  в посл. час ливневой снег  9/9 300 м кучево-дожд. 
[Cb cap]
+1.5 -1.2 82 -3               
03 22.09.17 350 (С) 9-13{14}  10 км  {ливн. осадки}  9/9 300 м кучево-дожд. 
[Cb cap]
+1.3 -2.3 77 -3  1026.5  1.2  769  309  +0.4    мокрый или
старый снег
50-90% 
06 22.09.17 350 (С) 9-14{14}  10 км  {ливн. осадки}  9/9 300 м 
[Sc]
+1.9 -3.1 69 -2  1027  0.5  770  308           
09 22.09.17 340 (С) 8{14}  10 км    9/8 300 м 
[Sc]
+2.2 -4.3 62 -2  1027.3  0.3  770  308           
12 22.09.17 360 (С) 7{12}  10 км    9/9 300 м 
[Sc]
+2.4 -5.6 55 -1  1028  0.7  770  308           
15 22.09.17 340 (С) 7{11}  10 км    9/9 300 м 
[Sc]
+2.8 -3.6 63 -1  1028.8  0.8  771  308    +2.8       
18 22.09.17 330 (СЗ) 10 км    8/8 300 м 
[Sc]
+2.8 -2.9 66 1029.2  0.4  771  308           
21 22.09.17 350 (С) 10 км    10/10 300 м 
[Sc]
+2.3 +0.2 86 1029.7  0.5  772  308           
00 23.09.17 180 (Ю) 10 км    9/8 300 м средняя 
[Sc|Ac trans]
+0.1 -0.7 94 +1  1030.3  0.6  772  311           
03 23.09.17 190 (Ю) 10 км    9/8 600 м средняя 
[Sc|Ac trans]
+1.3 +0 91 +1  1030.8  0.5  772  310  -0.2        влажная 
06 23.09.17 180 (Ю) 10 км    9/9 600 м 
[Sc]
+3.4 -3.3 61 +3  1032.2  1.4  773  308           
09 23.09.17 250 (З) 10 км    6/3 300 м кучево-дожд., средняя, верхняя 
[Cb cap|Ac trans|Ci fib]
+3.4 -2.4 66 +4  1031.3  -0.9  773  308           
12 23.09.17 280 (З) 10 км    8/3 600 м средняя, верхняя 
[Sc|Ac trans|Ci fib]
+3.2 -2.3 67 +4  1031  -0.3  773  308           
15 23.09.17 тихо ()   20000 м    3/0 верхняя 
[Ci fib]
-2.7 -4.1 90 -3  1031.6  0.6  769  313    +4.3       
18 23.09.17 200 (Ю) 10 км    4/4 600 м 
[Sc]
+0.5 -2.5 80 -2  1031.2  0.5  773  311           
21 23.09.17 200 (Ю) 10 км    8/8 300 м 
[Sc]
+1.1 -1.7 82 1030.7  -0.5  772  310           
00 24.09.17 210 (ЮЗ) 10 км    9/9 300 м 
[Sc]
+1.3 +0.1 92 1030.8  0.1  772  310           
03 24.09.17 260 (З) 10 км    9/9 300 м 
[Sc]
+3.7 +2.8 94 +2  1030.7  -0.1  772  307  -1.7        влажная 
Время (UTC), дата Ветер
(°,м/с) 
Видим.   Явления Облачность Т
(°С)
Тd
(°С)
f(%) Тe
(°С)
Pmin
(гПа)
dP
(гПа)
Po
(мм)
O2
(г/м3)
Тmin Tmax R s Состояние
почвы

Для получения пояснительной информации подведите курсор к названию столбца.

ПОГОДА в Ныде - архив

Всё, что Вы хотите узнать о погоде в Ныде - удобно и подробно!

Выберите нужную дату (начиная с 1 января 2015* года) и нажмите кнопку "Найти".
Будут отображены архивные сводки погоды по пункту Ныда, начиная с указанной даты.


Отображать данные в формате CSV (для использования в таблицах Excel)


Внимание! Наш архив погоды предназначен исключительно для личного некоммерческого использования в познавательных целях. Если Вам необходимы официальные справки о состоянии погоды (для производственных, юридических, коммерческих и т.п. целей), обращайтесь в органы Росгидромета.

*Примечание: данная дата относится к архиву по метеостанциям СССР (Россия, СНГ, Балтия).
Архив по метеостанциям Зарубежной Европы и Азии (кроме Китая) хранится 10 дней, по другим регионам земного шара (Китай, Африка, Америка, Австралия, Океания) - 1 день.

Ныда - район местоположения метеостанции


Название, широта, долгота, высота метеостанции:
Ныда 66.7°ш. 72.9°д. 10 м над ур. моря [Российская Федерация]

Дополнительная информация

В oтличие oт бoльшинства пoгoдных сайтoв мы публикуем пoдрoбную метеoинфoрмацию в детальнoм прoфессиoнальнoм фoрмате.

Характеристики температуры и влажнoсти вoздуха измеряются на высoте 2 м в тени вдали oт зданий и деревьев.
Скoрoсть ветра измеряется на высoте 10 м (на урoвне рoста челoвека скoрoсть ветра ниже в 1.5-2 раза). Если метеoстанция нахoдится в гoрoде или в лесу, тo скoрoсть ветра занижена на 2-4 м/с пo сравнению с oткрытым местoм. Скoрoсть ветра над акватoриями крупных рек и oзёр, а также на вершинах хoлмoв на 2-5 м/с выше, чем в oбычных услoвиях.
Атмoсфернoе давление в разных тoчках местнoсти мoжет значительнo oтличаться oт давления на метеoстанции, в зависимoсти oт услoвий рельефа (при пoдъёме на 10 м давление пoнижается примернo на 1 мм рт.ст.).